Lid_Strength_Index
0 3 3 3 3 2 2 3 2 3 3 3 3 4 4 4 5 5 5 3 1 -1 -2 -2 -2 -1 0 0 1 1 2 3 4 4 4 5 5 5 5 6 6 6 6
1 2 3 3 3 2 2 3 3 3 3 4 4 4 4 4 5 5 5 4 2 1 -1 -2 -1 -1 -0 1 1 1 1 2 3 4 4 4 5 5 5 5 5 5 6
0 2 2 3 3 2 3 4 4 4 4 4 5 5 5 5 5 5 5 6 5 2 0 -1 -1 -1 -0 -0 1 2 2 2 3 4 4 4 5 5 5 6 5 6 6
1 2 2 2 2 2 3 4 5 5 5 5 6 6 6 5 5 6 7 7 7 6 4 0 -1 -1 0 0 -0 1 2 3 4 4 4 4 5 5 6 6 6 6 6
1 2 1 2 1 2 4 4 5 5 6 6 7 7 6 6 6 6 8 8 8 8 8 5 3 3 1 1 0 0 1 2 3 4 5 5 5 5 6 6 6 6 6
1 1 2 2 2 2 4 4 5 6 5 6 6 7 8 8 8 8 8 9 9 9 10 9 10 8 6 2 1 0 1 2 3 4 4 5 5 5 5 5 5 5 5
2 3 2 3 2 2 4 4 6 6 7 8 8 9 9 10 10 10 10 10 11 11 11 11 11 10 10 5 3 2 2 2 3 3 4 4 5 5 5 5 5 5 5
1 1 2 3 4 4 5 4 6 8 9 8 8 9 10 11 12 11 11 11 12 12 13 13 13 13 13 13 10 5 4 3 3 3 4 4 5 5 5 5 5 4 5
2 2 2 2 3 4 4 5 6 6 8 9 10 8 12 13 14 13 13 12 12 14 14 14 14 14 15 15 12 11 8 6 5 5 4 5 5 5 5 5 5 4 4
2 2 2 3 3 4 4 5 5 6 7 9 10 10 11 11 13 14 14 14 13 14 13 14 14 15 15 15 14 12 11 9 8 7 7 6 6 5 5 5 5 5 5
3 3 3 3 4 4 4 5 6 6 7 8 9 11 10 12 13 14 12 14 14 14 13 13 14 14 15 14 15 14 11 10 9 9 9 8 7 7 6 5 5 5 5
4 4 5 5 5 5 5 6 6 6 7 8 9 10 11 12 12 13 13 12 13 14 14 14 14 14 14 15 15 13 12 11 10 9 9 9 8 8 7 6 6 5 5
6 5 5 5 5 5 5 5 6 6 7 8 9 10 10 12 12 12 12 13 14 15 15 14 14 14 14 15 15 13 13 12 10 10 9 9 8 8 7 7 6 6 6
5 5 5 7 8 8 8 7 8 8 9 9 10 11 12 14 14 14 15 15 16 17 16 16 15 14 14 14 14 13 14 12 12 11 10 10 9 8 8 7 7 7 7
10 11 11 12 12 11 11 12 13 13 13 14 14 14 15 15 15 15 15 16 16 17 17 16 16 15 15 15 14 14 15 14 12 11 11 10 10 9 9 8 8 7 7
13 13 13 13 13 13 13 13 14 13 14 14 14 15 15 15 15 16 16 16 16 16 17 17 16 16 15 15 15 14 15 14 13 12 12 11 11 10 9 9 9 8 7
13 14 13 14 14 14 13 13 14 14 15 15 16 16 17 16 16 16 16 16 17 17 18 18 17 15 17 16 15 15 15 15 15 14 13 12 12 11 11 10 9 8 8
15 15 15 15 15 15 15 15 15 16 16 17 17 17 17 16 17 16 17 17 17 17 18 19 17 17 16 15 16 16 16 15 16 14 13 12 11 11 10 10 10 10 9
16 16 16 16 16 15 15 15 16 16 17 18 18 18 18 19 19 17 17 18 17 16 17 18 18 16 16 16 17 16 16 15 15 13 12 12 12 12 11 11 11 11 10
17 17 16 16 16 16 16 16 16 17 17 18 19 20 19 18 19 18 18 19 18 18 18 18 18 18 18 17 19 20 20 19 19 17 16 15 13 13 12 12 13 12 11
18 18 18 18 17 17 16 17 18 19 19 19 19 20 20 19 18 18 18 19 19 19 19 20 20 21 21 22 22 21 22 22 21 20 19 20 20 19 18 14 14 12 11
19 18 19 18 18 17 17 17 18 21 21 22 21 21 20 19 18 18 18 18 18 20 21 23 23 23 23 23 22 23 23 24 25 20 22 22 20 20 19 18 16 15 14
21 20 19 19 19 18 17 18 18 20 21 22 21 20 20 19 18 18 18 18 17 17 17 21 22 22 23 21 21 23 23 23 24 23 24 26 22 23 21 19 17 17 16
21 21 21 20 19 18 17 18 18 19 19 20 20 20 19 19 17 17 19 20 20 19 19 20 21 21 21 20 21 22 23 25 25 24 23 28 23 25 22 23 19 17 15
22 22 21 21 20 18 15 16 17 19 19 20 20 20 19 18 16 16 19 21 20 20 19 19 19 19 19 19 19 23 27 28 29 27 24 25 24 25 24 24 21 17 16
20 20 20 20 19 19 15 15 17 18 20 20 20 20 19 18 17 17 20 22 22 21 23 24 23 22 22 22 20 23 25 29 29 30 24 27 27 26 28 24 23 22 20